#timestamp,LO_Frequency,Hit,StdDev 
1561953615.5,286046999.8,N
1561953635.4,286047002.8,N
1561953655.2,286046999.7,N
1561953675.0,286047002.6,N
1561953675.9,286047002.6,N
1561953695.8,286047002.5,N
1561953715.6,286047003.4,N
1561953735.4,286047001.7,N
1561953755.3,286047002.8,N
1561953775.1,286047002.1,N
1561953795.9,286047002.3,N
1561953815.7,286047002.8,N
1561953835.5,286046999.8,N
1561953855.4,286047000.1,N
1561953875.2,286047000.9,N
1561953895.0,286046999.8,N
1561953896.0,286046999.8,N
1561953915.8,286047003.9,N
1561953935.6,286047002.8,N
1561953955.5,286047002.4,N
1561953975.3,286047001.0,N
1561953995.1,286047000.3,N
1561954015.9,286047000.0,N
1561954035.7,286047002.3,N
1561954055.6,286047002.5,N
1561954075.4,286046999.9,N
1561954095.2,286047002.7,N
1561954115.1,286047001.9,N
1561954116.0,286047001.9,N
1561954135.8,286047001.3,N
1561954155.6,286047001.4,N
1561954175.5,286047001.3,N
1561954195.3,286047002.4,N
1561954215.2,286047001.5,N
1561954235.0,286047001.6,N
1561954235.9,286047001.6,N
1561954255.7,286047001.5,N
1561954275.6,286047001.5,N
1561954295.4,286047001.8,N
1561954315.3,286046999.8,N
1561954335.1,286047002.4,N
1561954355.8,286047002.2,N
1561954375.7,286046999.8,N
1561954395.5,286047000.7,N
1561954415.4,286046998.2,N
1561954435.2,286047000.9,N
1561954455.0,286047000.1,N
1561954455.9,286047000.1,N
1561954475.8,286047000.5,N
1561954495.6,286046999.7,N
1561954515.5,286047000.5,N
1561954535.3,286046998.6,N
1561954555.1,286046998.5,N
1561954575.9,286046996.6,N
1561954595.7,286046999.0,N
1561954615.5,286046998.2,N
1561954635.4,286046998.7,N
1561954655.2,286046998.5,N
1561954675.1,286046999.3,N
1561954676.0,286046999.3,N
1561954695.8,286046999.4,N
1561954715.6,286046997.3,N
1561954735.5,286046997.4,N
1561954755.3,286046997.3,N
1561954775.1,286046996.9,N
1561954795.9,286046999.0,N
1561954815.7,286046998.8,N
1561954835.6,286046997.4,N
1561954855.4,286046997.8,N
1561954875.2,286046997.5,N
1561954895.1,286046995.0,Y
1561954896.0,286046995.0,P
1561954915.8,286046996.6,N
1561954935.7,286046996.6,N
1561954955.5,286046997.8,N
1561954975.3,286046996.8,N
1561954995.2,286046996.6,N
1561955015.0,286046997.0,N
1561955015.9,286046997.0,N
1561955035.8,286046997.3,N
1561955055.6,286046997.6,N
1561955075.4,286046997.3,N
1561955095.3,286046998.0,N
1561955115.1,286046996.5,Y
1561955135.9,286047000.1,P
1561955155.7,286047001.1,N
1561955175.5,286047001.1,N
1561955195.4,286047000.1,N
1561955215.2,286047000.3,N
1561955235.0,286047001.1,N
1561955235.9,286047001.1,N
1561955255.8,286046998.9,N
1561955275.6,286047000.8,N
1561955295.5,286046999.0,N
1561955315.3,286046998.3,N
1561955335.1,286047000.7,N
1561955355.9,286046998.3,N
1561955375.7,286046999.3,N
1561955395.5,286046998.7,N
1561955415.4,286046998.5,N
1561955435.2,286046998.5,N
1561955455.1,286047000.3,N
1561955456.0,286047000.3,N
1561955475.8,286047001.1,N
1561955495.6,286047001.1,N
1561955515.5,286047001.0,N
1561955535.3,286046998.2,N
1561955555.1,286046998.5,N
1561955575.9,286046998.3,N
1561955595.7,286047001.2,N
1561955615.6,286046999.0,N
1561955635.4,286047000.5,N
1561955655.2,286046998.2,N
1561955675.1,286046999.0,N
1561955676.0,286046999.0,N
1561955695.8,286047001.0,N
1561955715.7,286047001.0,N
1561955735.6,286046998.5,N
1561955755.4,286047002.2,N
1561955775.2,286047000.2,N
1561955795.1,286047000.3,N
1561955796.0,286047000.3,N
1561955815.8,286047000.6,N
1561955835.6,286047000.6,N
1561955855.4,286047000.8,N
1561955875.3,286046999.9,N
1561955895.1,286047000.0,N
1561955915.9,286046998.6,N
1561955935.7,286047002.7,N
1561955955.5,286047000.3,N
1561955975.4,286047000.7,N
1561955995.2,286047001.0,N
1561956015.1,286047001.0,N
1561956016.0,286047001.0,N
1561956035.8,286047000.9,N
1561956055.6,286046998.7,N
1561956075.5,286046996.9,N
1561956095.3,286046996.5,N
1561956115.1,286046996.8,N
1561956135.9,286046997.2,N
1561956155.7,286046999.6,N
1561956175.6,286046996.6,N
1561956195.4,286046996.8,N
1561956215.2,286046997.0,N
1561956235.1,286046997.7,N
1561956236.0,286046997.7,N
1561956255.8,286046997.8,N
1561956275.7,286046997.3,N
1561956295.5,286046999.6,N
1561956315.3,286046997.5,N
1561956335.2,286046996.6,N
1561956355.0,286046997.3,N
1561956355.9,286046997.3,N
1561956375.7,286046997.2,N
1561956395.6,286046997.4,N
1561956415.4,286046998.2,N
1561956435.3,286046998.9,N
1561956455.1,286046999.0,N
1561956456.0,286046999.0,N
1561956475.8,286046999.3,N
1561956495.7,286046998.4,N
1561956515.5,286047001.1,N
1561956535.4,286047001.2,N
1561956555.2,286046998.9,N
1561956575.0,286046998.5,N
1561956575.9,286046998.5,N
1561956595.8,286047000.7,N
1561956615.6,286046998.1,N
1561956635.4,286047001.2,N
1561956655.3,286046998.5,N
1561956675.1,286046998.6,N
1561956695.9,286046998.1,N
1561956715.7,286046999.0,N
1561956735.5,286046999.0,N
1561956755.4,286047001.1,N
1561956775.2,286046998.4,N
1561956795.1,286046998.7,N
1561956796.0,286046998.7,N
1561956815.8,286046998.4,N
1561956835.6,286047000.0,N
1561956855.5,286047000.8,N
1561956875.3,286047000.8,N
1561956895.6,286046998.7,N
1561956915.4,286046998.1,N
1561956935.3,286047000.9,N
1561956955.1,286047001.0,N
1561956975.8,286047000.6,N
1561956995.7,286047001.1,N
1561957015.5,286047000.6,N
1561957035.4,286047000.8,N
1561957055.2,286047001.0,N
1561957075.0,286047000.8,N
1561957075.9,286047000.8,N
1561957095.8,286046998.7,N
1561957115.6,286046999.5,N
1561957135.5,286046999.1,N
1561957155.3,286046999.3,N
1561957175.1,286046998.4,N
1561957195.9,286046998.5,N
